DW2213 Weather Reports


time (UTC)temp
C
wind
direction
speed
KPH
gust
KPH
rain 1hr
cm
rain 24hr
cm
rain mn
cm
humidity
%
barometer
mb
20260902161805 30 118 1.6 9.7 0.00 0.00 0.00 71 1014.4
20260902161305 30 136 3.2 11.3 0.00 0.00 0.00 71 1014.3
20260902160805 30 116 3.2 8.0 0.00 0.00 0.00 70 1014.3
20260902160305 31 96 1.6 8.0 0.00 0.00 0.00 69 1014.3
20260902155307 31 128 1.6 8.0 0.00 0.00 0.00 68 1014.4
20260902154805 31 134 3.2 8.0 0.00 0.00 0.00 67 1014.3
20260902153804 31 122 3.2 8.0 0.00 0.00 0.00 68 1014.5
20260902153305 31 105 1.6 9.7 0.00 0.00 0.00 68 1014.5
20260902152307 31 86 3.2 8.0 0.00 0.00 0.00 69 1014.5
20260902151805 31 138 1.6 9.7 0.00 0.00 0.00 70 1014.6
20260902151305 31 117 3.2 8.0 0.00 0.00 0.00 69 1014.5
20260902150305 31 118 1.6 11.3 0.00 0.00 0.00 70 1014.6
20260902145806 31 125 3.2 11.3 0.00 0.00 0.00 70 1014.6
20260902145306 31 124 1.6 11.3 0.00 0.00 0.00 70 1014.5
20260902144805 31 137 3.2 11.3 0.00 0.00 0.00 70 1014.6
20260902144305 31 110 1.6 8.0 0.00 0.00 0.00 69 1014.7
20260902143305 31 138 3.2 9.7 0.00 0.00 0.00 69 1014.7
20260902142805 31 132 3.2 9.7 0.00 0.00 0.00 68 1014.8
20260902142306 31 115 1.6 8.0 0.00 0.00 0.00 69 1014.8
20260902141806 31 118 1.6 4.8 0.00 0.00 0.00 68 1014.9
20260902141306 31 99 3.2 8.0 0.00 0.00 0.00 68 1014.9
20260902140305 31 120 3.2 12.9 0.00 0.00 0.00 66 1015.0
20260902135805 32 138 1.6 9.7 0.00 0.00 0.00 66 1015.1
20260902134804 31 124 3.2 11.3 0.00 0.00 0.00 67 1015.1
20260902134305 31 128 3.2 12.9 0.00 0.00 0.00 67 1015.1
20260902133805 31 124 1.6 9.7 0.00 0.00 0.00 67 1015.1
20260902132805 31 124 3.2 11.3 0.00 0.00 0.00 66 1015.2
20260902131805 31 123 3.2 9.7 0.00 0.00 0.00 66 1015.2
20260902131305 31 132 1.6 12.9 0.00 0.00 0.00 67 1015.2
20260902130805 31 128 4.8 9.7 0.00 0.00 0.00 66 1015.3
20260902125805 31 131 1.6 12.9 0.00 0.00 0.00 66 1015.4
20260902125306 31 129 1.6 9.7 0.00 0.00 0.00 67 1015.4
20260902124805 31 132 1.6 12.9 0.00 0.00 0.00 66 1015.5
20260902124304 31 132 0.0 4.8 0.00 0.00 0.00 66 1015.5
20260902123305 31 134 4.8 11.3 0.00 0.00 0.00 67 1015.7
20260902122805 31 135 1.6 4.8 0.00 0.00 0.00 67 1015.7
20260902121804 31 137 1.6 8.0 0.00 0.00 0.00 65 1015.8
20260902121305 31 135 1.6 4.8 0.00 0.00 0.00 66 1015.7
20260902120805 31 155 1.6 8.0 0.00 0.00 0.00 67 1015.7
20260902120305 31 136 1.6 8.0 0.00 0.00 0.00 66 1015.8
20260902115804 31 131 1.6 9.7 0.00 0.00 0.00 68 1015.8
20260902114804 31 155 0.0 4.8 0.00 0.00 0.00 68 1015.8
20260902114305 31 128 3.2 9.7 0.00 0.00 0.00 68 1016.0
20260902113805 31 147 0.0 11.3 0.00 0.00 0.00 69 1016.0
20260902113305 31 134 1.6 9.7 0.00 0.00 0.00 68 1016.0
20260902112805 30 127 1.6 9.7 0.00 0.00 0.00 70 1016.0
20260902112306 30 134 1.6 9.7 0.00 0.00 0.00 70 1016.0
20260902111304 30 144 1.6 4.8 0.00 0.00 0.00 69 1016.0
20260902110805 30 135 0.0 4.8 0.00 0.00 0.00 71 1016.0
20260902110304 30 126 1.6 8.0 0.00 0.00 0.00 70 1016.0
20260902105804 30 128 0.0 4.8 0.00 0.00 0.00 71 1016.0
20260902105306 30 137 1.6 8.0 0.00 0.00 0.00 71 1016.0
20260902104805 30 141 1.6 9.7 0.00 0.00 0.00 72 1016.0
20260902104305 30 329 0.0 4.8 0.00 0.00 0.00 72 1016.1
20260902103304 28 131 0.0 4.8 0.00 0.00 0.00 74 1016.2
20260902102805 29 149 1.6 9.7 0.00 0.00 0.00 74 1016.2
20260902102307 29 146 1.6 4.8 0.00 0.00 0.00 74 1016.2
20260902101805 29 146 0.0 3.2 0.00 0.00 0.00 73 1016.2
20260902100306 30 140 0.0 4.8 0.00 0.00 0.00 71 1016.1
20260902095804 30 116 1.6 4.8 0.00 0.00 0.00 71 1016.1
20260902095307 30 136 0.0 3.2 0.00 0.00 0.00 72 1016.1
20260902094305 29 134 1.6 3.2 0.00 0.00 0.00 72 1016.1
20260902093304 29 140 0.0 3.2 0.00 0.00 0.00 74 1016.0
20260902092305 28 142 0.0 8.0 0.00 0.00 0.00 76 1016.1
20260902091804 28 136 0.0 3.2 0.00 0.00 0.00 76 1016.1
20260902091304 28 142 0.0 3.2 0.00 0.00 0.00 76 1016.1
20260902090805 28 145 0.0 0.0 0.00 0.00 0.00 76 1016.0
20260902090304 28 145 0.0 0.0 0.00 0.00 0.00 75 1016.0
20260902085804 28 145 1.6 4.8 0.00 0.00 0.00 75 1016.0
20260902085306 28 143 0.0 1.6 0.00 0.00 0.00 75 1016.0
20260902084805 28 149 1.6 3.2 0.00 0.00 0.00 76 1016.0
20260902084304 28 159 0.0 4.8 0.00 0.00 0.00 76 1015.9
20260902083804 27 209 0.0 0.0 0.00 0.00 0.00 76 1015.8
20260902083304 27 284 0.0 0.0 0.00 0.00 0.00 76 1015.6
20260902082805 27 284 0.0 0.0 0.00 0.00 0.00 77 1015.6
20260902081804 27 284 0.0 0.0 0.00 0.00 0.00 79 1015.5
20260902081304 26 284 0.0 0.0 0.00 0.00 0.00 79 1015.4
20260902080805 26 284 0.0 0.0 0.00 0.00 0.00 80 1015.3
20260902080304 26 284 0.0 0.0 0.00 0.00 0.00 80 1015.3
20260902075804 26 284 0.0 0.0 0.00 0.00 0.00 79 1015.3
20260902075306 26 284 0.0 0.0 0.00 0.00 0.00 79 1015.3
20260902074805 26 284 0.0 0.0 0.00 0.00 0.00 79 1015.3
20260902074305 26 284 0.0 0.0 0.00 0.00 0.00 79 1015.3
20260902073804 26 284 0.0 3.2 0.00 0.00 0.00 80 1015.3
20260902072805 25 286 0.0 1.6 0.00 0.00 0.00 81 1015.3
20260902072309 25 286 0.0 1.6 0.00 0.00 0.00 82 1015.2
20260902071805 25 286 0.0 1.6 0.00 0.00 0.00 83 1015.1
20260902071304 25 287 0.0 0.0 0.00 0.00 0.00 83 1015.1
20260902070804 24 286 0.0 1.6 0.00 0.00 0.00 84 1015.0
20260902070304 24 290 0.0 0.0 0.00 0.00 0.00 84 1014.9
20260902065804 24 290 0.0 0.0 0.00 0.00 0.00 85 1014.9
20260902065306 23 291 0.0 1.6 0.00 0.00 0.00 85 1014.8
20260902064804 23 292 0.0 0.0 0.00 0.00 0.00 85 1014.8
20260902064304 23 292 0.0 0.0 0.00 0.00 0.00 86 1014.8
20260902063804 23 292 0.0 0.0 0.00 0.00 0.00 86 1014.7
20260902062804 23 291 0.0 0.0 0.00 0.00 0.00 87 1014.5
20260902062306 23 291 0.0 0.0 0.00 0.00 0.00 87 1014.6
20260902061804 23 291 0.0 0.0 0.00 0.00 0.00 87 1014.5
20260902061304 23 291 0.0 0.0 0.00 0.00 0.00 87 1014.4
20260902055307 23 291 0.0 0.0 0.00 0.00 0.00 87 1014.4
20260902054804 23 291 0.0 0.0 0.00 0.00 0.00 87 1014.3
20260902054304 23 291 0.0 0.0 0.00 0.00 0.00 87 1014.4
20260902053304 22 291 0.0 0.0 0.00 0.00 0.00 87 1014.4
20260902052804 22 291 0.0 0.0 0.00 0.00 0.00 87 1014.3
20260902052306 22 291 0.0 0.0 0.00 0.00 0.00 88 1014.3
20260902051305 22 292 0.0 0.0 0.00 0.00 0.00 88 1014.2
20260902045804 22 100 0.0 0.0 0.00 0.00 0.00 89 1014.0
20260902045306 22 100 0.0 0.0 0.00 0.00 0.00 89 1014.0
20260902044805 22 100 0.0 0.0 0.00 0.00 0.00 89 1013.9
20260902043804 23 100 0.0 0.0 0.00 0.00 0.00 90 1013.9
20260902043305 23 100 0.0 0.0 0.00 0.00 0.00 90 1013.9
20260902042804 23 100 0.0 0.0 0.00 0.00 0.00 90 1013.9
20260902042308 23 100 0.0 0.0 0.00 0.00 0.00 90 1013.8
20260902041804 23 100 0.0 0.0 0.00 0.00 0.00 90 1013.9
20260902041304 23 100 0.0 0.0 0.00 0.00 0.00 90 1013.8
20260902040805 23 100 0.0 0.0 0.00 0.00 0.00 90 1013.9
20260902040305 23 100 0.0 0.0 0.00 0.00 0.00 90 1013.9
20260902035804 23 100 0.0 0.0 0.00 0.00 0.00 90 1013.9
20260902035305 23 100 0.0 0.0 0.00 0.00 0.00 90 1013.9
20260902034804 23 100 0.0 0.0 0.00 0.00 0.00 90 1013.9
20260902034304 23 100 0.0 0.0 0.00 0.00 0.00 90 1013.8
20260902033304 23 100 0.0 0.0 0.00 0.00 0.00 90 1013.9
20260902032805 23 100 0.0 0.0 0.00 0.00 0.00 90 1014.0
20260902032306 23 100 0.0 0.0 0.00 0.00 0.00 90 1014.0
20260902031804 23 100 0.0 0.0 0.00 0.00 0.00 90 1014.0
20260902031305 23 100 0.0 0.0 0.00 0.00 0.00 90 1014.1
20260902030804 23 100 0.0 0.0 0.00 0.00 0.00 90 1014.1
20260902030304 23 100 0.0 0.0 0.00 0.00 0.00 90 1014.1
20260902025804 23 100 0.0 0.0 0.00 0.00 0.00 90 1014.2
20260902025306 24 100 0.0 0.0 0.00 0.00 0.00 90 1014.1
20260902024804 24 100 0.0 0.0 0.00 0.00 0.00 90 1014.1
20260902024304 24 100 0.0 0.0 0.00 0.00 0.00 90 1014.1
20260902023804 24 100 0.0 0.0 0.00 0.00 0.00 90 1014.2
20260902023304 24 100 0.0 0.0 0.00 0.00 0.00 90 1014.2
20260902022306 24 100 0.0 0.0 0.00 0.00 0.00 90 1014.1
20260902021304 24 100 0.0 0.0 0.00 0.00 0.00 90 1014.2
20260902020804 24 100 0.0 0.0 0.00 0.00 0.00 90 1014.1
20260902020304 24 100 0.0 0.0 0.00 0.00 0.00 90 1014.0
20260902015804 24 100 0.0 0.0 0.00 0.00 0.00 90 1014.1
20260902015306 24 100 0.0 0.0 0.00 0.00 0.00 90 1014.2
20260902014804 24 100 0.0 0.0 0.00 0.00 0.00 90 1014.3
20260902014304 24 100 0.0 0.0 0.00 0.00 0.00 90 1014.4
20260902013804 24 100 0.0 0.0 0.00 0.00 0.00 90 1014.3
20260902013304 24 100 0.0 0.0 0.00 0.00 0.00 89 1014.3
20260902012804 24 100 0.0 0.0 0.00 0.00 0.00 89 1014.4
20260902012309 24 99 0.0 0.0 0.00 0.00 0.00 89 1014.4
20260902011305 24 100 0.0 0.0 0.00 0.00 0.00 89 1014.5
20260902010804 24 100 0.0 0.0 0.00 0.00 0.00 89 1014.5
20260902010304 24 99 0.0 0.0 0.00 0.00 0.00 89 1014.5
20260902004804 24 144 0.0 0.0 0.00 0.00 0.00 89 1014.4
20260902004304 24 144 0.0 0.0 0.00 0.00 0.00 89 1014.5
20260902003805 24 144 0.0 0.0 0.00 0.00 0.00 89 1014.6
20260902003304 24 144 0.0 0.0 0.00 0.00 0.00 89 1014.6
20260902002804 24 144 0.0 0.0 0.00 0.00 0.00 89 1014.5
20260902002306 24 144 0.0 1.6 0.00 0.00 0.00 90 1014.5
20260902001804 24 144 0.0 1.6 0.00 0.00 0.00 90 1014.6
20260902001304 24 143 0.0 0.0 0.00 0.00 0.00 90 1014.6
20260902000804 24 143 0.0 0.0 0.00 0.00 0.00 89 1014.7
20260901235804 24 143 0.0 0.0 0.00 0.00 0.00 89 1014.6
20260901235307 24 143 0.0 0.0 0.00 0.00 0.00 89 1014.6
20260901234804 24 143 0.0 0.0 0.00 0.00 0.00 89 1014.5
20260901234304 24 143 0.0 0.0 0.00 0.00 0.00 89 1014.5
20260901233804 24 143 0.0 0.0 0.00 0.00 0.00 89 1014.6
20260901233304 24 143 0.0 0.0 0.00 0.00 0.00 89 1014.6
20260901232804 24 143 0.0 0.0 0.00 0.00 0.00 89 1014.5
20260901232306 24 143 0.0 0.0 0.00 0.00 0.00 89 1014.5
20260901231804 25 143 0.0 0.0 0.00 0.00 0.00 88 1014.5
20260901231304 25 142 0.0 0.0 0.00 0.00 0.00 88 1014.5
20260901230804 25 142 0.0 0.0 0.00 0.00 0.00 88 1014.4
20260901230304 25 142 0.0 0.0 0.00 0.00 0.00 88 1014.4
20260901225804 25 142 0.0 0.0 0.00 0.00 0.00 88 1014.4
20260901225306 25 142 0.0 0.0 0.00 0.00 0.00 88 1014.5
20260901224804 25 142 0.0 0.0 0.00 0.00 0.00 88 1014.5
20260901224304 25 142 0.0 0.0 0.00 0.00 0.00 88 1014.4
20260901223804 25 142 0.0 0.0 0.00 0.00 0.00 88 1014.5
20260901223304 25 142 0.0 0.0 0.00 0.00 0.00 88 1014.4
20260901222306 25 142 0.0 0.0 0.00 0.00 0.00 87 1014.4
20260901221304 25 142 0.0 0.0 0.00 0.00 0.00 87 1014.4
20260901220816 25 142 0.0 0.0 0.00 0.00 0.00 87 1014.3
20260901220305 25 142 0.0 0.0 0.00 0.00 0.00 86 1014.4
20260901215804 26 142 0.0 0.0 0.00 0.00 0.00 86 1014.3
20260901215306 26 142 0.0 0.0 0.00 0.00 0.00 86 1014.3
20260901214304 26 142 0.0 0.0 0.00 0.00 0.00 85 1014.3
20260901213804 26 142 0.0 0.0 0.00 0.00 0.00 85 1014.3
20260901213304 26 142 0.0 0.0 0.00 0.00 0.00 85 1014.3
20260901212804 26 142 0.0 0.0 0.00 0.00 0.00 85 1014.4
20260901212306 26 142 0.0 0.0 0.00 0.00 0.00 85 1014.4
20260901211304 26 142 0.0 0.0 0.00 0.00 0.00 85 1014.4
20260901210804 26 142 0.0 0.0 0.00 0.00 0.00 85 1014.4
20260901210304 26 142 0.0 0.0 0.00 0.00 0.00 84 1014.3
20260901205804 26 142 0.0 0.0 0.00 0.00 0.00 84 1014.2
20260901205306 26 142 0.0 0.0 0.00 0.00 0.00 84 1014.2
20260901204804 26 142 0.0 0.0 0.00 0.00 0.00 84 1014.2
20260901204304 26 142 0.0 0.0 0.00 0.00 0.00 84 1014.2
20260901203804 26 142 0.0 0.0 0.00 0.00 0.00 84 1014.2
20260901203304 26 142 0.0 0.0 0.00 0.00 0.00 84 1014.0
20260901202804 26 142 0.0 0.0 0.00 0.00 0.00 84 1014.0
20260901201804 26 142 0.0 0.0 0.00 0.00 0.00 83 1014.0
20260901201304 26 142 0.0 0.0 0.00 0.00 0.00 83 1014.0
20260901200804 26 142 0.0 0.0 0.00 0.00 0.00 83 1013.9
20260901200304 26 142 0.0 0.0 0.00 0.00 0.00 83 1013.8
20260901195804 26 142 0.0 0.0 0.00 0.00 0.00 83 1013.7
20260901195306 26 142 0.0 0.0 0.00 0.00 0.00 82 1013.7
20260901194804 26 142 0.0 0.0 0.00 0.00 0.00 82 1013.5
20260901194304 26 142 0.0 0.0 0.00 0.00 0.00 82 1013.3
20260901193804 26 142 0.0 0.0 0.00 0.00 0.00 82 1013.5
20260901193304 26 142 0.0 0.0 0.00 0.00 0.00 82 1013.5
20260901192804 26 142 0.0 0.0 0.00 0.00 0.00 82 1013.4
20260901192306 26 142 0.0 0.0 0.00 0.00 0.00 82 1013.3
20260901191803 26 142 0.0 0.0 0.00 0.00 0.00 81 1013.2
20260901191304 27 142 0.0 0.0 0.00 0.00 0.00 81 1013.1
20260901190304 27 142 0.0 0.0 0.00 0.00 0.00 80 1012.9
20260901185804 27 142 0.0 0.0 0.00 0.00 0.00 80 1012.8
20260901185306 27 142 0.0 0.0 0.00 0.00 0.00 80 1012.8
20260901184804 27 142 0.0 0.0 0.00 0.00 0.00 80 1012.8
20260901184304 27 142 0.0 0.0 0.00 0.00 0.00 80 1012.7
20260901183803 27 142 0.0 0.0 0.00 0.00 0.00 80 1012.6
20260901183304 27 142 0.0 0.0 0.00 0.00 0.00 80 1012.6
20260901182305 27 142 0.0 8.0 0.00 0.00 0.00 79 1012.5
20260901181803 27 150 0.0 3.2 0.00 0.00 0.00 79 1012.5
20260901181304 27 150 0.0 1.6 0.00 0.00 0.00 79 1012.7
20260901180803 27 150 0.0 3.2 0.00 0.00 0.00 78 1012.7
20260901180304 27 148 1.6 8.0 0.00 0.00 0.00 78 1012.7
20260901175804 27 138 1.6 3.2 0.00 0.00 0.00 78 1012.6
20260901175305 27 137 1.6 4.8 0.00 0.00 0.00 77 1012.7
20260901174804 27 140 0.0 3.2 0.00 0.00 0.00 77 1012.7
20260901174303 28 137 0.0 3.2 0.00 0.00 0.00 76 1012.8
20260901173804 28 136 1.6 8.0 0.00 0.00 0.00 76 1012.8
20260901172803 28 132 1.6 8.0 0.00 0.00 0.00 75 1012.8
20260901171803 28 143 1.6 4.8 0.00 0.00 0.00 74 1012.7
20260901171304 28 142 1.6 4.8 0.00 0.00 0.00 73 1012.7
20260901170804 28 140 1.6 8.0 0.00 0.00 0.00 73 1012.7
20260901170305 28 139 0.0 4.8 0.00 0.00 0.00 72 1012.6
20260901165306 29 129 0.0 3.2 0.00 0.00 0.00 71 1012.7
20260901164805 29 154 1.6 4.8 0.00 0.00 0.00 71 1012.6
20260901164305 29 125 1.6 8.0 0.00 0.00 0.00 71 1012.7
20260901163305 29 138 0.0 8.0 0.00 0.00 0.00 71 1012.6
20260901162306 29 126 0.0 3.2 0.00 0.00 0.00 72 1012.7